{"data":{"norad_id":58444,"epoch":"2026-05-24T17:04:43.174848Z","epoch_age_seconds":96002,"freshness":"FRESH","line1":"1 58444U 23183H   26144.71161082 -.00000161  00000+0  36786-5 0  9998","line2":"2 58444  43.0033 332.0505 0001341 271.7265  88.3433 15.27586472138364","mean_motion":15.27586472,"eccentricity":0.0001341,"inclination_deg":43.0033,"raan_deg":332.0505,"arg_perigee_deg":271.7265,"mean_anomaly_deg":88.3433,"bstar":3.6786e-6,"rev_number":13836,"period_min":94.266349329127,"perigee_km":482.10963415509,"apogee_km":483.94979906848,"semimajor_km":6861.1667166118,"source":"CELESTRAK","updated_at":"2026-05-25T13:38:18.623151Z"}}